Torna al catalogo

YAM-15

AttivoComunicazioniSSO
NORAD 68997·PAYLOAD·🇮🇳 India

Lanciato May 3, 2026 da Vandenberg Space Force Base

Loading…

Prossimi Passaggi (prossime 24 ore)

TLE

AggiornatoSource: Space-Track

Epoca: Sep 14, 2026, 22:57 UTC

1 68997U 26100T   26257.95653695  .00001229  00000-0  13176-3 0  9993
2 68997  97.7764 153.9169 0001933  82.8122 277.3316 14.90430650 20074

Traccia YAM-15 in tempo reale con AllMySat

Download on the App Store